Time,TemperatureF,DewpointF,PressureIn,WindDirection,WindDirectionDegrees,WindSpeedMPH,WindSpeedGustMPH,Humidity,HourlyPrecipIn,Conditions,Clouds,dailyrainin,SoftwareType,DateUTC
2013-03-09 00:02:00,36.0,26.0,30.22,NNW,329,1.0,5.0,67,0.00,,,0.05,,2013-03-09 05:02:00,
2013-03-09 00:12:00,36.0,26.0,30.22,NNW,329,1.0,5.0,67,0.00,,,0.05,,2013-03-09 05:12:00,
2013-03-09 00:22:00,36.0,26.0,30.23,NNW,327,0.0,5.0,66,0.00,,,0.05,,2013-03-09 05:22:00,
2013-03-09 00:32:00,36.0,26.0,30.22,North,360,0.0,3.0,68,0.00,,,0.05,,2013-03-09 05:32:00,
2013-03-09 00:42:00,36.0,26.0,30.22,North,360,0.0,3.0,68,0.00,,,0.05,,2013-03-09 05:42:00,
2013-03-09 00:53:00,35.0,26.0,30.22,NNW,327,1.0,5.0,68,0.00,,,0.05,,2013-03-09 05:53:00,
2013-03-09 01:02:00,35.0,26.0,30.22,NW,326,1.0,6.0,68,0.00,,,0.05,,2013-03-09 06:02:00,
2013-03-09 01:11:00,35.0,26.0,30.23,North,351,1.0,4.0,68,0.00,,,0.05,,2013-03-09 06:11:00,
2013-03-09 01:22:00,35.0,26.0,30.23,North,351,1.0,4.0,68,0.00,,,0.05,,2013-03-09 06:22:00,
2013-03-09 01:32:00,35.0,26.0,30.23,North,351,1.0,4.0,68,0.00,,,0.05,,2013-03-09 06:32:00,
2013-03-09 01:42:00,35.0,26.0,30.23,North,351,1.0,4.0,68,0.00,,,0.05,,2013-03-09 06:42:00,
2013-03-09 01:52:00,35.0,26.0,30.23,WNW,296,1.0,4.0,69,0.00,,,0.05,,2013-03-09 06:52:00,
2013-03-09 02:01:00,34.0,25.0,30.22,NW,317,0.0,5.0,69,0.00,,,0.05,,2013-03-09 07:01:00,
2013-03-09 02:11:00,34.0,25.0,30.22,NW,317,0.0,5.0,69,0.00,,,0.05,,2013-03-09 07:11:00,
2013-03-09 02:21:00,34.0,25.0,30.22,NW,305,0.0,3.0,70,0.00,,,0.05,,2013-03-09 07:21:00,
2013-03-09 02:32:00,34.0,25.0,30.22,NW,305,0.0,3.0,70,0.00,,,0.05,,2013-03-09 07:32:00,
2013-03-09 02:42:00,34.0,25.0,30.22,NW,305,0.0,3.0,70,0.00,,,0.05,,2013-03-09 07:42:00,
2013-03-09 02:52:00,33.0,25.0,30.21,NW,320,1.0,1.0,73,0.00,,,0.05,,2013-03-09 07:52:00,
2013-03-09 03:01:00,32.0,25.0,30.21,NW,321,1.0,3.0,74,0.00,,,0.05,,2013-03-09 08:01:00,
2013-03-09 03:11:00,32.0,25.0,30.21,NW,321,1.0,3.0,74,0.00,,,0.05,,2013-03-09 08:11:00,
2013-03-09 03:22:00,33.0,25.0,30.21,NW,324,1.0,2.0,73,0.00,,,0.05,,2013-03-09 08:22:00,
2013-03-09 03:32:00,32.0,24.0,30.20,NW,323,1.0,2.0,72,0.00,,,0.05,,2013-03-09 08:32:00,
2013-03-09 03:42:00,32.0,24.0,30.20,NW,323,1.0,2.0,72,0.00,,,0.05,,2013-03-09 08:42:00,
2013-03-09 03:52:00,32.0,24.0,30.20,NW,319,1.0,2.0,72,0.00,,,0.05,,2013-03-09 08:52:00,
2013-03-09 04:02:00,32.0,24.0,30.21,NW,319,0.0,2.0,73,0.00,,,0.05,,2013-03-09 09:02:00,
2013-03-09 04:12:00,32.0,24.0,30.21,NW,319,0.0,2.0,73,0.00,,,0.05,,2013-03-09 09:12:00,
2013-03-09 04:21:00,32.0,25.0,30.22,NW,319,0.0,2.0,74,0.00,,,0.05,,2013-03-09 09:21:00,
2013-03-09 04:32:00,31.0,24.0,30.23,NW,319,1.0,2.0,74,0.00,,,0.05,,2013-03-09 09:32:00,
2013-03-09 04:42:00,31.0,24.0,30.23,NW,319,1.0,2.0,74,0.00,,,0.05,,2013-03-09 09:42:00,
2013-03-09 04:52:00,31.0,24.0,30.23,NW,319,1.0,1.0,75,0.00,,,0.05,,2013-03-09 09:52:00,
2013-03-09 05:01:00,31.0,24.0,30.24,NW,319,0.0,2.0,76,0.00,,,0.05,,2013-03-09 10:01:00,
2013-03-09 05:11:00,31.0,24.0,30.24,NW,319,0.0,2.0,76,0.00,,,0.05,,2013-03-09 10:11:00,
2013-03-09 05:21:00,30.0,24.0,30.24,NW,319,0.0,2.0,77,0.00,,,0.05,,2013-03-09 10:21:00,
2013-03-09 05:31:00,30.0,24.0,30.25,NW,319,0.0,1.0,78,0.00,,,0.05,,2013-03-09 10:31:00,
2013-03-09 05:42:00,30.0,24.0,30.25,NW,319,0.0,1.0,78,0.00,,,0.05,,2013-03-09 10:42:00,
2013-03-09 05:52:00,30.0,24.0,30.25,NW,319,0.0,1.0,78,0.00,,,0.05,,2013-03-09 10:52:00,
2013-03-09 06:01:00,30.0,24.0,30.25,NW,319,0.0,2.0,78,0.00,,,0.05,,2013-03-09 11:01:00,
2013-03-09 06:11:00,30.0,24.0,30.25,NW,319,0.0,2.0,78,0.00,,,0.05,,2013-03-09 11:11:00,
2013-03-09 06:22:00,30.0,24.0,30.25,North,355,0.0,1.0,77,0.00,,,0.05,,2013-03-09 11:22:00,
2013-03-09 06:32:00,31.0,24.0,30.26,NNW,338,0.0,3.0,74,0.00,,,0.05,,2013-03-09 11:32:00,
2013-03-09 06:42:00,31.0,24.0,30.26,NNW,338,0.0,3.0,74,0.00,,,0.05,,2013-03-09 11:42:00,
2013-03-09 06:52:00,31.0,24.0,30.26,NNW,338,0.0,1.0,74,0.00,,,0.05,,2013-03-09 11:52:00,
2013-03-09 07:01:00,31.0,24.0,30.27,NNW,328,0.0,2.0,74,0.00,,,0.05,,2013-03-09 12:01:00,
2013-03-09 07:11:00,31.0,24.0,30.27,NNW,328,0.0,2.0,74,0.00,,,0.05,,2013-03-09 12:11:00,
2013-03-09 07:21:00,32.0,25.0,30.27,NNW,328,1.0,2.0,74,0.00,,,0.05,,2013-03-09 12:21:00,
2013-03-09 07:32:00,33.0,25.0,30.27,NNW,328,0.0,2.0,72,0.00,,,0.05,,2013-03-09 12:32:00,
2013-03-09 07:42:00,33.0,25.0,30.27,NNW,328,0.0,2.0,72,0.00,,,0.05,,2013-03-09 12:42:00,
2013-03-09 07:52:00,34.0,25.0,30.27,NNW,338,1.0,3.0,70,0.00,,,0.05,,2013-03-09 12:52:00,
2013-03-09 08:02:00,35.0,26.0,30.27,NNW,340,1.0,6.0,68,0.00,,,0.05,,2013-03-09 13:02:00,
2013-03-09 08:11:00,35.0,26.0,30.27,NNW,340,1.0,6.0,68,0.00,,,0.05,,2013-03-09 13:11:00,
2013-03-09 08:21:00,36.0,25.0,30.28,NW,308,2.0,4.0,65,0.00,,,0.05,,2013-03-09 13:21:00,
2013-03-09 08:32:00,37.0,26.0,30.28,NNW,346,2.0,4.0,63,0.00,,,0.05,,2013-03-09 13:32:00,
2013-03-09 08:42:00,37.0,26.0,30.28,NNW,346,2.0,4.0,63,0.00,,,0.05,,2013-03-09 13:42:00,
2013-03-09 08:52:00,38.0,26.0,30.28,North,9,1.0,5.0,61,0.00,,,0.05,,2013-03-09 13:52:00,
2013-03-09 09:01:00,40.0,26.0,30.28,North,355,1.0,5.0,58,0.00,,,0.05,,2013-03-09 14:01:00,
2013-03-09 09:11:00,40.0,26.0,30.28,North,355,1.0,5.0,58,0.00,,,0.05,,2013-03-09 14:11:00,
2013-03-09 09:21:00,40.0,26.0,30.28,NW,307,2.0,6.0,57,0.00,,,0.05,,2013-03-09 14:21:00,
2013-03-09 09:32:00,40.0,26.0,30.28,NW,307,2.0,6.0,57,0.00,,,0.05,,2013-03-09 14:32:00,
2013-03-09 09:42:00,40.0,26.0,30.28,NW,307,2.0,6.0,57,0.00,,,0.05,,2013-03-09 14:42:00,
2013-03-09 09:52:00,44.0,28.0,30.29,NW,304,3.0,6.0,52,0.00,,,0.05,,2013-03-09 14:52:00,
2013-03-09 10:02:00,45.0,27.0,30.29,North,351,3.0,8.0,50,0.00,,,0.05,,2013-03-09 15:02:00,
2013-03-09 10:12:00,45.0,27.0,30.29,North,351,3.0,8.0,50,0.00,,,0.05,,2013-03-09 15:12:00,
2013-03-09 10:22:00,46.0,27.0,30.29,NE,56,3.0,8.0,48,0.00,,,0.05,,2013-03-09 15:22:00,
2013-03-09 10:32:00,46.0,26.0,30.29,NW,315,3.0,7.0,46,0.00,,,0.05,,2013-03-09 15:32:00,
2013-03-09 10:42:00,46.0,26.0,30.29,NW,315,3.0,7.0,46,0.00,,,0.05,,2013-03-09 15:42:00,
2013-03-09 10:52:00,48.0,28.0,30.28,NNE,13,2.0,6.0,45,0.00,,,0.05,,2013-03-09 15:52:00,
2013-03-09 11:01:00,50.0,27.0,30.28,ENE,77,2.0,7.0,41,0.00,,,0.05,,2013-03-09 16:01:00,
2013-03-09 11:11:00,50.0,27.0,30.28,ENE,77,2.0,7.0,41,0.00,,,0.05,,2013-03-09 16:11:00,
2013-03-09 11:21:00,50.0,28.0,30.28,NNW,345,3.0,5.0,42,0.00,,,0.05,,2013-03-09 16:21:00,
2013-03-09 11:32:00,51.0,28.0,30.28,North,9,3.0,8.0,41,0.00,,,0.05,,2013-03-09 16:32:00,
2013-03-09 11:42:00,51.0,28.0,30.28,North,9,3.0,8.0,41,0.00,,,0.05,,2013-03-09 16:42:00,
2013-03-09 11:52:00,53.0,26.0,30.28,NW,318,2.0,5.0,35,0.00,,,0.05,,2013-03-09 16:52:00,
2013-03-09 12:01:00,54.0,26.0,30.27,NNW,346,3.0,7.0,34,0.00,,,0.05,,2013-03-09 17:01:00,
2013-03-09 12:11:00,54.0,26.0,30.27,NNW,346,3.0,7.0,34,0.00,,,0.05,,2013-03-09 17:11:00,
2013-03-09 12:22:00,55.0,27.0,30.26,NW,315,1.0,7.0,34,0.00,,,0.05,,2013-03-09 17:22:00,
2013-03-09 12:32:00,56.0,26.0,30.26,NE,53,3.0,5.0,31,0.00,,,0.05,,2013-03-09 17:32:00,
2013-03-09 12:42:00,56.0,26.0,30.26,NE,53,3.0,5.0,31,0.00,,,0.05,,2013-03-09 17:42:00,
2013-03-09 12:52:00,56.0,23.0,30.24,North,5,5.0,11.0,28,0.00,,,0.05,,2013-03-09 17:52:00,
2013-03-09 13:02:00,57.0,24.0,30.23,ESE,120,2.0,9.0,28,0.00,,,0.05,,2013-03-09 18:02:00,
2013-03-09 13:11:00,57.0,24.0,30.23,ESE,120,2.0,9.0,28,0.00,,,0.05,,2013-03-09 18:11:00,
2013-03-09 13:21:00,58.0,23.0,30.22,WNW,288,3.0,8.0,26,0.00,,,0.00,,2013-03-09 18:21:00,
2013-03-09 13:32:00,59.0,24.0,30.22,NNW,340,4.0,8.0,26,0.00,,,0.00,,2013-03-09 18:32:00,
2013-03-09 13:42:00,59.0,24.0,30.22,NNW,340,4.0,8.0,26,0.00,,,0.00,,2013-03-09 18:42:00,
2013-03-09 13:52:00,60.0,23.0,30.22,North,9,2.0,5.0,24,0.00,,,0.00,,2013-03-09 18:52:00,
2013-03-09 14:01:00,60.0,24.0,30.21,North,360,1.0,5.0,25,0.00,,,0.00,,2013-03-09 19:01:00,
2013-03-09 14:11:00,60.0,24.0,30.21,North,360,1.0,5.0,25,0.00,,,0.00,,2013-03-09 19:11:00,
2013-03-09 14:22:00,61.0,21.0,30.21,North,360,3.0,5.0,21,0.00,,,0.00,,2013-03-09 19:22:00,
2013-03-09 14:32:00,61.0,21.0,30.21,North,360,3.0,5.0,21,0.00,,,0.00,,2013-03-09 19:32:00,
2013-03-09 14:42:00,61.0,21.0,30.21,North,360,3.0,5.0,21,0.00,,,0.00,,2013-03-09 19:42:00,
2013-03-09 14:52:00,61.0,24.0,30.20,NNE,12,5.0,7.0,24,0.00,,,0.00,,2013-03-09 19:52:00,
2013-03-09 15:01:00,61.0,17.0,30.20,NE,35,3.0,6.0,18,0.00,,,0.00,,2013-03-09 20:01:00,
2013-03-09 15:11:00,61.0,17.0,30.20,NE,35,3.0,6.0,18,0.00,,,0.00,,2013-03-09 20:11:00,
2013-03-09 15:22:00,61.0,17.0,30.21,NNE,28,2.0,8.0,18,0.00,,,0.00,,2013-03-09 20:22:00,
2013-03-09 15:32:00,61.0,17.0,30.21,NNW,348,4.0,9.0,18,0.00,,,0.00,,2013-03-09 20:32:00,
2013-03-09 15:42:00,61.0,17.0,30.21,NNW,348,4.0,9.0,18,0.00,,,0.00,,2013-03-09 20:42:00,
2013-03-09 15:52:00,60.0,18.0,30.21,NE,52,4.0,7.0,19,0.00,,,0.00,,2013-03-09 20:52:00,
2013-03-09 16:02:00,60.0,20.0,30.21,NE,46,2.0,6.0,21,0.00,,,0.00,,2013-03-09 21:02:00,
2013-03-09 16:12:00,60.0,20.0,30.21,NE,46,2.0,6.0,21,0.00,,,0.00,,2013-03-09 21:12:00,
2013-03-09 16:22:00,59.0,19.0,30.21,North,11,3.0,6.0,21,0.00,,,0.00,,2013-03-09 21:22:00,
2013-03-09 16:32:00,59.0,19.0,30.21,North,11,3.0,6.0,21,0.00,,,0.00,,2013-03-09 21:32:00,
2013-03-09 16:42:00,59.0,19.0,30.21,North,11,3.0,6.0,21,0.00,,,0.00,,2013-03-09 21:42:00,
2013-03-09 16:52:00,59.0,21.0,30.22,East,79,2.0,4.0,23,0.00,,,0.00,,2013-03-09 21:52:00,
2013-03-09 17:01:00,59.0,20.0,30.22,East,95,1.0,5.0,22,0.00,,,0.00,,2013-03-09 22:01:00,
2013-03-09 17:11:00,59.0,20.0,30.22,East,95,1.0,5.0,22,0.00,,,0.00,,2013-03-09 22:11:00,
2013-03-09 17:21:00,58.0,22.0,30.22,NE,56,0.0,2.0,25,0.00,,,0.00,,2013-03-09 22:21:00,
2013-03-09 17:32:00,58.0,22.0,30.22,NE,56,0.0,2.0,25,0.00,,,0.00,,2013-03-09 22:32:00,
2013-03-09 17:42:00,58.0,22.0,30.22,NE,56,0.0,2.0,25,0.00,,,0.00,,2013-03-09 22:42:00,
2013-03-09 17:52:00,57.0,22.0,30.23,ENE,72,0.0,3.0,26,0.00,,,0.00,,2013-03-09 22:52:00,
2013-03-09 18:01:00,56.0,23.0,30.23,ENE,67,0.0,2.0,27,0.00,,,0.00,,2013-03-09 23:01:00,
2013-03-09 18:11:00,56.0,23.0,30.23,ENE,67,0.0,2.0,27,0.00,,,0.00,,2013-03-09 23:11:00,
2013-03-09 18:22:00,56.0,23.0,30.23,ENE,67,0.0,2.0,27,0.00,,,0.00,,2013-03-09 23:22:00,
2013-03-09 18:32:00,53.0,25.0,30.24,NE,42,0.0,0.0,33,0.00,,,0.00,,2013-03-09 23:32:00,
2013-03-09 18:42:00,53.0,25.0,30.24,NE,42,0.0,0.0,33,0.00,,,0.00,,2013-03-09 23:42:00,
2013-03-09 18:52:00,51.0,25.0,30.24,NE,42,0.0,0.0,36,0.00,,,0.00,,2013-03-09 23:52:00,
2013-03-09 19:02:00,49.0,25.0,30.25,NE,42,0.0,0.0,38,0.00,,,0.00,,2013-03-10 00:02:00,
2013-03-09 19:11:00,49.0,25.0,30.25,NE,42,0.0,0.0,38,0.00,,,0.00,,2013-03-10 00:11:00,
2013-03-09 19:22:00,49.0,25.0,30.25,NE,42,0.0,0.0,38,0.00,,,0.00,,2013-03-10 00:22:00,
2013-03-09 19:32:00,49.0,25.0,30.25,NE,42,0.0,0.0,38,0.00,,,0.00,,2013-03-10 00:32:00,
2013-03-09 19:42:00,49.0,25.0,30.25,NE,42,0.0,0.0,38,0.00,,,0.00,,2013-03-10 00:42:00,
2013-03-09 19:52:00,42.0,27.0,30.25,NE,42,0.0,1.0,56,0.00,,,0.00,,2013-03-10 00:52:00,
2013-03-09 20:01:00,41.0,27.0,30.26,NE,42,0.0,1.0,58,0.00,,,0.00,,2013-03-10 01:01:00,
2013-03-09 20:11:00,41.0,27.0,30.26,NE,42,0.0,1.0,58,0.00,,,0.00,,2013-03-10 01:11:00,
2013-03-09 20:21:00,40.0,27.0,30.26,NE,42,0.0,1.0,59,0.00,,,0.00,,2013-03-10 01:21:00,
2013-03-09 20:32:00,39.0,29.0,30.26,NE,42,0.0,0.0,66,0.00,,,0.00,,2013-03-10 01:32:00,
2013-03-09 20:42:00,39.0,29.0,30.26,NE,42,0.0,0.0,66,0.00,,,0.00,,2013-03-10 01:42:00,
2013-03-09 20:52:00,38.0,27.0,30.25,NE,42,0.0,0.0,65,0.00,,,0.00,,2013-03-10 01:52:00,
2013-03-09 21:01:00,37.0,28.0,30.26,NE,42,0.0,1.0,69,0.00,,,0.00,,2013-03-10 02:01:00,
2013-03-09 21:11:00,37.0,28.0,30.26,NE,42,0.0,1.0,69,0.00,,,0.00,,2013-03-10 02:11:00,
2013-03-09 21:22:00,36.0,28.0,30.27,NE,42,0.0,1.0,72,0.00,,,0.00,,2013-03-10 02:22:00,
2013-03-09 21:32:00,36.0,28.0,30.27,NE,42,0.0,1.0,72,0.00,,,0.00,,2013-03-10 02:32:00,
2013-03-09 21:42:00,36.0,28.0,30.27,NE,42,0.0,1.0,72,0.00,,,0.00,,2013-03-10 02:42:00,
2013-03-09 21:52:00,34.0,26.0,30.28,NE,42,0.0,0.0,72,0.00,,,0.00,,2013-03-10 02:52:00,
2013-03-09 22:02:00,34.0,27.0,30.28,NE,42,0.0,0.0,74,0.00,,,0.00,,2013-03-10 03:02:00,
2013-03-09 22:12:00,33.0,26.0,30.28,NE,42,0.0,0.0,76,0.00,,,0.00,,2013-03-10 03:12:00,
2013-03-09 22:22:00,33.0,26.0,30.28,NE,42,0.0,0.0,76,0.00,,,0.00,,2013-03-10 03:22:00,
2013-03-09 22:32:00,33.0,26.0,30.28,NE,42,0.0,0.0,76,0.00,,,0.00,,2013-03-10 03:32:00,
2013-03-09 22:42:00,32.0,26.0,30.28,NE,42,0.0,1.0,78,0.00,,,0.00,,2013-03-10 03:42:00,
2013-03-09 22:52:00,32.0,26.0,30.28,NE,42,0.0,1.0,78,0.00,,,0.00,,2013-03-10 03:52:00,
2013-03-09 23:01:00,32.0,26.0,30.29,NE,42,0.0,1.0,77,0.00,,,0.00,,2013-03-10 04:01:00,
2013-03-09 23:11:00,31.0,25.0,30.29,NE,42,0.0,0.0,79,0.00,,,0.00,,2013-03-10 04:11:00,
2013-03-09 23:21:00,31.0,25.0,30.29,NE,42,0.0,0.0,79,0.00,,,0.00,,2013-03-10 04:21:00,
2013-03-09 23:32:00,31.0,25.0,30.29,NE,42,0.0,0.0,79,0.00,,,0.00,,2013-03-10 04:32:00,
2013-03-09 23:42:00,31.0,25.0,30.29,NE,42,0.0,0.0,79,0.00,,,0.00,,2013-03-10 04:42:00,
2013-03-09 23:52:00,30.0,25.0,30.30,NE,42,0.0,1.0,82,0.00,,,0.00,,2013-03-10 04:52:00,